This is the latest recevied weather packets stored in our database for station/object HB9TJM-8. If no packets are shown the sender has not sent any weather packets the latest 10 day(s).
| Time | Temp. | Humidity | Pressure | Rain* | Wind** | Luminosity | Snow |
|---|---|---|---|---|---|---|---|
| 1777212281 | 18.33° C | 29% | 1020.1 hPa | 0 mm | - | 638 W/m² | - |
| 1777211973 | 17.78° C | 31% | 1020.2 hPa | 0 mm | - | 652 W/m² | - |
| 1777211666 | 17.78° C | 33% | 1020.1 hPa | 0 mm | - | 663 W/m² | - |
| 1777211358 | 17.78° C | 32% | 1020 hPa | 0 mm | - | 676 W/m² | - |
| 1777211051 | 17.78° C | 32% | 1020.3 hPa | 0 mm | - | 688 W/m² | - |
| 1777210743 | 17.78° C | 32% | 1019.8 hPa | 0 mm | - | 701 W/m² | - |
| 1777210436 | 17.78° C | 36% | 1020.4 hPa | 0 mm | - | 712 W/m² | - |
| 1777210128 | 17.78° C | 33% | 1019.8 hPa | 0 mm | - | 722 W/m² | - |
| 1777209820 | 17.78° C | 34% | 1020.7 hPa | 0 mm | - | 731 W/m² | - |
| 1777209513 | 17.78° C | 34% | 1020.9 hPa | 0 mm | - | 740 W/m² | - |
| 1777209205 | 17.78° C | 35% | 1020.3 hPa | 0 mm | - | 750 W/m² | - |
| 1777208898 | 17.78° C | 37% | 1020.3 hPa | 0 mm | - | 756 W/m² | - |
| 1777208590 | 17.22° C | 34% | 1020.7 hPa | 0 mm | - | 766 W/m² | - |
| 1777208283 | 17.22° C | 39% | 1020.6 hPa | 0 mm | - | 773 W/m² | - |
| 1777207975 | 17.22° C | 36% | 1020.7 hPa | 0 mm | - | 782 W/m² | - |
| 1777207668 | 17.22° C | 36% | 1020.4 hPa | 0 mm | - | 789 W/m² | - |
| 1777207360 | 17.22° C | 36% | 1020.7 hPa | 0 mm | - | 796 W/m² | - |
| 1777207052 | 17.22° C | 37% | 1020.7 hPa | 0 mm | - | 803 W/m² | - |
| 1777206745 | 16.67° C | 37% | 1020.7 hPa | 0 mm | - | 809 W/m² | - |
| 1777206437 | 16.67° C | 39% | 1020.5 hPa | 0 mm | - | 815 W/m² | - |
| 1777206129 | 16.67° C | 36% | 1020.6 hPa | 0 mm | - | 820 W/m² | - |
| 1777205822 | 16.67° C | 37% | 1020.5 hPa | 0 mm | - | 825 W/m² | - |
| 1777205515 | 16.67° C | 37% | 1020.7 hPa | 0 mm | - | 829 W/m² | - |
| 1777205208 | 16.67° C | 38% | 1020.6 hPa | 0 mm | - | 832 W/m² | - |
| 1777204284 | 16.67° C | 38% | 1020.5 hPa | 0 mm | - | 841 W/m² | - |
* Rain latest hour (hover to see other rain measurements)
** Current wind speed in m/s (hover to see current wind gust speed)